When you browse on this site, cookies collect data to enhance your experience and personalize the content and advertising you see.
Visit our Privacy Policy to learn more. By continuing to use the site, you agree to this use of cookies and data.
  • In Switzerland
  • List of Countries
  • For 7 days
  • Water Temperature
  • Weather Map
  • Weather Widgets
  • user-avatar
    Login

    Hourly Weather Shaki

    Today, 26 May, Tuesday

    Time Temperature Precipitation Wind Pressure Humidity
    00:00 +15°C° 0 mm 2 mps 734 mmHg 78%
    01:00 +14°C° 0 mm 3 mps 734 mmHg 79%
    02:00 +14°C° 0 mm 4 mps 735 mmHg 80%
    03:00 +14°C° 0 mm 4 mps 735 mmHg 82%
    04:00 +15°C° 0 mm 4 mps 735 mmHg 78%
    05:00 +16°C° 0 mm 5 mps 735 mmHg 74%
    06:00 +17°C° 0 mm 5 mps 735 mmHg 70%
    07:00 +20°C° 0 mm 6 mps 736 mmHg 63%
    08:00 +21°C° 0 mm 6 mps 736 mmHg 56%
    09:00 +24°C° 0 mm 7 mps 736 mmHg 50%
    10:00 +26°C° 0 mm 6 mps 736 mmHg 44%
    11:00 +28°C° 0 mm 6 mps 736 mmHg 39%
    12:00 +29°C° 0 mm 6 mps 737 mmHg 33%
    13:00 +30°C° 0 mm 5 mps 737 mmHg 32%
    14:00 +30°C° 0 mm 5 mps 737 mmHg 30%
    15:00 +32°C° 0 mm 4 mps 737 mmHg 28%
    16:00 +30°C° 0 mm 3 mps 737 mmHg 33%
    17:00 +29°C° 0 mm 2 mps 738 mmHg 37%
    18:00 +28°C° 0 mm 2 mps 738 mmHg 41%
    19:00 +25°C° 0 mm 3 mps 738 mmHg 47%
    20:00 +21°C° 0 mm 4 mps 739 mmHg 53%
    21:00 +19°C° 0 mm 5 mps 739 mmHg 58%
    22:00 +18°C° 0 mm 4 mps 739 mmHg 59%
    23:00 +18°C° 0 mm 3 mps 739 mmHg 60%

    Tomorrow, 27 May, Wednesday

    Time Temperature Precipitation Wind Pressure Humidity
    00:00 +17°C° 0 mm 2 mps 739 mmHg 61%
    01:00 +17°C° 0 mm 2 mps 739 mmHg 61%
    02:00 +18°C° 0 mm 1 mps 739 mmHg 61%
    03:00 +16°C° 0 mm 1 mps 739 mmHg 61%
    04:00 +18°C° 0 mm 1 mps 739 mmHg 61%
    05:00 +19°C° 0 mm 1 mps 740 mmHg 60%
    06:00 +20°C° 0 mm 1 mps 740 mmHg 60%
    07:00 +21°C° 0 mm 1 mps 740 mmHg 56%
    08:00 +23°C° 0 mm 1 mps 740 mmHg 52%
    09:00 +24°C° 0 mm 2 mps 740 mmHg 48%
    10:00 +26°C° 0 mm 2 mps 739 mmHg 46%
    11:00 +27°C° 0 mm 2 mps 739 mmHg 43%
    12:00 +28°C° 0 mm 2 mps 739 mmHg 41%
    13:00 +28°C° 0 mm 2 mps 739 mmHg 40%
    14:00 +29°C° 0 mm 2 mps 738 mmHg 39%
    15:00 +29°C° 0 mm 2 mps 738 mmHg 38%
    16:00 +29°C° 0 mm 2 mps 738 mmHg 41%
    17:00 +28°C° 0 mm 1 mps 738 mmHg 43%
    18:00 +28°C° 0 mm 1 mps 738 mmHg 46%
    19:00 +26°C° 0 mm 1 mps 738 mmHg 49%
    20:00 +24°C° 0 mm 1 mps 738 mmHg 53%
    21:00 +22°C° 0 mm 1 mps 738 mmHg 56%
    22:00 +21°C° 0 mm 1 mps 738 mmHg 56%
    23:00 +21°C° 0 mm 1 mps 737 mmHg 56%

    Day after tomorrow, 28 May, Thursday

    Time Temperature Precipitation Wind Pressure Humidity
    00:00 +21°C° 0 mm 1 mps 737 mmHg 56%
    01:00 +20°C° 0 mm 1 mps 737 mmHg 57%
    02:00 +20°C° 0 mm 1 mps 737 mmHg 58%
    03:00 +17°C° 0 mm 0 mps 736 mmHg 59%
    04:00 +18°C° 0 mm 0 mps 736 mmHg 58%
    05:00 +21°C° 0 mm 1 mps 736 mmHg 57%
    06:00 +22°C° 0 mm 1 mps 736 mmHg 56%
    07:00 +24°C° 0 mm 1 mps 736 mmHg 53%
    08:00 +26°C° 0 mm 1 mps 736 mmHg 49%
    09:00 +27°C° 0 mm 1 mps 735 mmHg 46%
    10:00 +29°C° 0 mm 1 mps 735 mmHg 43%
    11:00 +30°C° 0 mm 2 mps 735 mmHg 40%
    12:00 +31°C° 0 mm 2 mps 734 mmHg 38%
    13:00 +32°C° 0 mm 2 mps 734 mmHg 36%
    14:00 +32°C° 0 mm 2 mps 734 mmHg 35%
    15:00 +34°C° 0 mm 2 mps 733 mmHg 33%
    16:00 +32°C° 0 mm 2 mps 733 mmHg 36%
    17:00 +32°C° 0 mm 2 mps 733 mmHg 39%
    18:00 +31°C° 0 mm 1 mps 733 mmHg 42%
    19:00 +29°C° 0 mm 2 mps 733 mmHg 45%
    20:00 +27°C° 0 mm 2 mps 733 mmHg 48%
    21:00 +25°C° 0 mm 2 mps 733 mmHg 51%
    22:00 +24°C° 0 mm 2 mps 733 mmHg 50%
    23:00 +24°C° 0 mm 2 mps 733 mmHg 49%

    29 May, Friday

    Time Temperature Precipitation Wind Pressure Humidity
    00:00 +23°C° 0 mm 2 mps 733 mmHg 48%
    01:00 +23°C° 0 mm 1 mps 732 mmHg 48%
    02:00 +23°C° 0 mm 1 mps 732 mmHg 48%
    03:00 +21°C° 0 mm 0 mps 732 mmHg 48%
    04:00 +23°C° 0 mm 1 mps 732 mmHg 48%
    05:00 +24°C° 0 mm 1 mps 732 mmHg 49%
    06:00 +24°C° 0 mm 1 mps 732 mmHg 50%
    07:00 +26°C° 0 mm 1 mps 731 mmHg 47%
    08:00 +28°C° 0 mm 2 mps 731 mmHg 43%
    09:00 +29°C° 0 mm 2 mps 731 mmHg 40%
    10:00 +31°C° 0 mm 3 mps 730 mmHg 37%
    11:00 +33°C° 0 mm 3 mps 730 mmHg 34%
    12:00 +35°C° 0 mm 3 mps 730 mmHg 31%
    13:00 +35°C° 0.1 mm 4 mps 729 mmHg 29%
    14:00 +36°C° 0.1 mm 4 mps 729 mmHg 28%
    15:00 +37°C° 0.1 mm 4 mps 728 mmHg 27%
    16:00 +36°C° 0.3 mm 3 mps 728 mmHg 32%
    17:00 +34°C° 0.3 mm 3 mps 728 mmHg 37%
    18:00 +32°C° 0.3 mm 2 mps 727 mmHg 42%
    19:00 +30°C° 0 mm 2 mps 728 mmHg 44%
    20:00 +28°C° 0 mm 2 mps 728 mmHg 46%
    21:00 +26°C° 0 mm 2 mps 728 mmHg 49%
    22:00 +25°C° 0 mm 2 mps 728 mmHg 52%
    23:00 +24°C° 0 mm 2 mps 728 mmHg 56%

    30 May, Saturday

    Time Temperature Precipitation Wind Pressure Humidity
    00:00 +24°C° 0 mm 1 mps 728 mmHg 60%
    01:00 +23°C° 0 mm 2 mps 728 mmHg 63%
    02:00 +21°C° 0 mm 2 mps 728 mmHg 66%
    03:00 +21°C° 0 mm 2 mps 728 mmHg 68%
    04:00 +21°C° 0 mm 3 mps 729 mmHg 69%
    05:00 +22°C° 0 mm 3 mps 729 mmHg 69%
    06:00 +22°C° 0 mm 3 mps 730 mmHg 69%
    07:00 +25°C° 0 mm 4 mps 730 mmHg 62%
    08:00 +27°C° 0 mm 5 mps 730 mmHg 55%
    09:00 +29°C° 0 mm 6 mps 731 mmHg 49%
    10:00 +32°C° 0.1 mm 6 mps 731 mmHg 42%
    11:00 +33°C° 0.1 mm 6 mps 732 mmHg 36%
    12:00 +34°C° 0.1 mm 6 mps 732 mmHg 29%
    13:00 +34°C° 0 mm 6 mps 732 mmHg 27%
    14:00 +35°C° 0 mm 6 mps 732 mmHg 26%
    15:00 +35°C° 0 mm 6 mps 733 mmHg 24%
    16:00 +34°C° 0 mm 6 mps 733 mmHg 26%
    17:00 +32°C° 0 mm 5 mps 733 mmHg 28%
    18:00 +30°C° 0 mm 5 mps 733 mmHg 31%
    19:00 +28°C° 0 mm 4 mps 734 mmHg 34%
    20:00 +26°C° 0 mm 3 mps 734 mmHg 36%
    21:00 +24°C° 0 mm 3 mps 735 mmHg 39%
    22:00 +23°C° 0 mm 2 mps 735 mmHg 45%
    23:00 +21°C° 0 mm 2 mps 735 mmHg 51%

    31 May, Sunday

    Time Temperature Precipitation Wind Pressure Humidity
    00:00 +20°C° 0 mm 2 mps 735 mmHg 57%
    01:00 +21°C° 0 mm 1 mps 736 mmHg 61%
    02:00 +20°C° 0 mm 1 mps 736 mmHg 66%
    03:00 +20°C° 0 mm 1 mps 736 mmHg 70%
    04:00 +20°C° 0 mm 2 mps 736 mmHg 69%
    05:00 +20°C° 0 mm 2 mps 736 mmHg 68%
    06:00 +21°C° 0 mm 3 mps 737 mmHg 67%
    07:00 +24°C° 0 mm 3 mps 737 mmHg 62%
    08:00 +25°C° 0 mm 4 mps 737 mmHg 57%
    09:00 +27°C° 0 mm 4 mps 737 mmHg 52%
    10:00 +28°C° 0 mm 4 mps 737 mmHg 48%
    11:00 +29°C° 0 mm 4 mps 737 mmHg 45%
    12:00 +30°C° 0 mm 3 mps 737 mmHg 41%
    13:00 +31°C° 0 mm 3 mps 737 mmHg 40%
    14:00 +31°C° 0 mm 3 mps 736 mmHg 38%
    15:00 +33°C° 0 mm 3 mps 736 mmHg 37%
    16:00 +31°C° 0 mm 3 mps 736 mmHg 40%
    17:00 +30°C° 0 mm 3 mps 736 mmHg 43%
    18:00 +30°C° 0 mm 4 mps 736 mmHg 47%
    19:00 +27°C° 0 mm 3 mps 736 mmHg 52%
    20:00 +25°C° 0 mm 3 mps 736 mmHg 57%
    21:00 +22°C° 0 mm 3 mps 736 mmHg 63%
    22:00 +21°C° 0 mm 3 mps 736 mmHg 64%
    23:00 +20°C° 0 mm 2 mps 736 mmHg 65%
    Show more